Time,TemperatureF,DewpointF,PressureIn,WindDirection,WindDirectionDegrees,WindSpeedMPH,WindSpeedGustMPH,Humidity,HourlyPrecipIn,Conditions,Clouds,dailyrainin,SoftwareType,DateUTC
2013-06-04 00:00:00,52.6,47.6,30.02,NE,45,0.0,0.0,83,0.00,CLR,,0.00,WeatherDisplay:10.37,2013-06-04 05:00:00,
2013-06-04 00:05:00,52.6,47.6,30.02,NE,45,0.0,0.0,83,0.00,CLR,,0.00,WeatherDisplay:10.37,2013-06-04 05:05:00,
2013-06-04 00:15:00,52.5,47.5,30.01,NE,45,0.0,0.0,83,0.00,CLR,,0.00,WeatherDisplay:10.37,2013-06-04 05:15:00,
2013-06-04 00:20:00,52.5,47.8,30.02,NE,45,0.0,0.0,84,0.00,CLR,,0.00,WeatherDisplay:10.37,2013-06-04 05:20:00,
2013-06-04 00:25:00,52.5,47.5,30.02,NE,45,0.0,0.0,83,0.00,CLR,,0.00,WeatherDisplay:10.37,2013-06-04 05:25:00,
2013-06-04 00:30:00,52.5,47.5,30.02,NE,45,0.0,2.0,83,0.00,CLR,,0.00,WeatherDisplay:10.37,2013-06-04 05:30:00,
2013-06-04 00:35:00,52.5,47.5,30.02,NE,45,0.0,0.0,83,0.00,CLR,,0.00,WeatherDisplay:10.37,2013-06-04 05:35:00,
2013-06-04 00:40:00,52.5,47.5,30.02,NE,45,0.0,0.0,83,0.00,CLR,,0.00,WeatherDisplay:10.37,2013-06-04 05:40:00,
2013-06-04 00:45:00,52.5,47.5,30.02,NE,45,0.0,0.0,83,0.00,CLR,,0.00,WeatherDisplay:10.37,2013-06-04 05:45:00,
2013-06-04 00:50:00,52.5,47.5,30.02,NE,45,0.0,2.0,83,0.00,CLR,,0.00,WeatherDisplay:10.37,2013-06-04 05:50:00,
2013-06-04 00:55:00,52.3,47.0,30.02,NE,45,0.0,3.0,82,0.00,CLR,,0.00,WeatherDisplay:10.37,2013-06-04 05:55:00,
2013-06-04 01:00:00,52.3,47.0,30.03,NE,45,0.0,2.0,82,0.00,CLR,,0.00,WeatherDisplay:10.37,2013-06-04 06:00:00,
2013-06-04 01:05:00,52.2,46.9,30.03,NE,45,0.0,0.0,82,0.00,CLR,,0.00,WeatherDisplay:10.37,2013-06-04 06:05:00,
2013-06-04 01:10:00,52.1,46.8,30.03,NE,45,0.0,0.0,82,0.00,CLR,,0.00,WeatherDisplay:10.37,2013-06-04 06:10:00,
2013-06-04 01:15:00,52.0,46.7,30.03,NE,45,0.0,0.0,82,0.00,CLR,,0.00,WeatherDisplay:10.37,2013-06-04 06:15:00,
2013-06-04 01:20:00,51.9,46.6,30.03,NE,45,0.0,0.0,82,0.00,CLR,,0.00,WeatherDisplay:10.37,2013-06-04 06:20:00,
2013-06-04 01:25:00,51.9,46.6,30.04,NE,45,0.0,0.0,82,0.00,CLR,,0.00,WeatherDisplay:10.37,2013-06-04 06:25:00,
2013-06-04 01:30:00,51.7,46.4,30.04,NE,45,0.0,0.0,82,0.00,CLR,,0.00,WeatherDisplay:10.37,2013-06-04 06:30:00,
2013-06-04 01:35:00,51.6,46.3,30.04,NE,45,0.0,0.0,82,0.00,CLR,,0.00,WeatherDisplay:10.37,2013-06-04 06:35:00,
2013-06-04 01:40:00,51.6,46.3,30.04,NE,45,0.0,0.0,82,0.00,CLR,,0.00,WeatherDisplay:10.37,2013-06-04 06:40:00,
2013-06-04 01:45:00,51.4,46.1,30.04,NE,45,0.0,0.0,82,0.00,CLR,,0.00,WeatherDisplay:10.37,2013-06-04 06:45:00,
2013-06-04 01:50:00,51.5,46.2,30.04,NE,45,0.0,0.0,82,0.00,CLR,,0.00,WeatherDisplay:10.37,2013-06-04 06:50:00,
2013-06-04 01:55:00,51.6,46.3,30.04,NE,45,0.0,0.0,82,0.00,CLR,,0.00,WeatherDisplay:10.37,2013-06-04 06:55:00,
2013-06-04 02:00:00,51.7,46.4,30.04,NE,45,0.0,0.0,82,0.00,CLR,,0.00,WeatherDisplay:10.37,2013-06-04 07:00:00,
2013-06-04 02:05:00,51.7,46.7,30.03,NE,45,0.0,0.0,83,0.00,CLR,,0.00,WeatherDisplay:10.37,2013-06-04 07:05:00,
2013-06-04 02:10:00,51.9,46.9,30.03,NE,45,0.0,2.0,83,0.00,CLR,,0.00,WeatherDisplay:10.37,2013-06-04 07:10:00,
2013-06-04 02:15:00,52.0,47.0,30.03,NE,45,0.0,2.0,83,0.00,CLR,,0.00,WeatherDisplay:10.37,2013-06-04 07:15:00,
2013-06-04 02:20:00,52.2,47.2,30.03,NE,44,1.0,5.0,83,0.00,CLR,,0.00,WeatherDisplay:10.37,2013-06-04 07:20:00,
2013-06-04 02:25:00,52.5,47.5,30.03,NE,43,0.0,2.0,83,0.00,CLR,,0.00,WeatherDisplay:10.37,2013-06-04 07:25:00,
2013-06-04 02:30:00,52.8,47.5,30.03,NE,42,0.0,2.0,82,0.00,CLR,,0.00,WeatherDisplay:10.37,2013-06-04 07:30:00,
2013-06-04 02:35:00,52.9,47.6,30.03,NE,42,0.0,0.0,82,0.00,CLR,,0.00,WeatherDisplay:10.37,2013-06-04 07:35:00,
2013-06-04 02:40:00,52.9,47.6,30.03,NE,42,0.0,0.0,82,0.00,CLR,,0.00,WeatherDisplay:10.37,2013-06-04 07:40:00,
2013-06-04 02:45:00,52.9,47.6,30.03,NE,42,0.0,0.0,82,0.00,CLR,,0.00,WeatherDisplay:10.37,2013-06-04 07:45:00,
2013-06-04 02:50:00,53.1,47.7,30.03,NE,42,1.0,3.0,82,0.00,CLR,,0.00,WeatherDisplay:10.37,2013-06-04 07:50:00,
2013-06-04 03:00:00,53.2,47.5,30.02,NE,36,2.0,6.0,81,0.00,CLR,,0.00,WeatherDisplay:10.37,2013-06-04 08:00:00,
2013-06-04 03:05:00,53.3,47.3,30.03,NNE,29,0.0,6.0,80,0.00,CLR,,0.00,WeatherDisplay:10.37,2013-06-04 08:05:00,
2013-06-04 03:10:00,53.5,47.5,30.03,NNE,28,2.0,5.0,80,0.00,CLR,,0.00,WeatherDisplay:10.37,2013-06-04 08:10:00,
2013-06-04 03:15:00,53.6,47.2,30.03,NNE,21,1.0,8.0,79,0.00,CLR,,0.00,WeatherDisplay:10.37,2013-06-04 08:15:00,
2013-06-04 03:20:00,53.6,47.2,30.04,NNE,17,0.0,2.0,79,0.00,CLR,,0.00,WeatherDisplay:10.37,2013-06-04 08:20:00,
2013-06-04 03:25:00,53.5,47.2,30.05,NNE,15,0.0,2.0,79,0.00,CLR,,0.00,WeatherDisplay:10.37,2013-06-04 08:25:00,
2013-06-04 03:30:00,53.3,47.3,30.05,NNE,15,0.0,0.0,80,0.00,CLR,,0.00,WeatherDisplay:10.37,2013-06-04 08:30:00,
2013-06-04 03:35:00,53.0,47.0,30.05,NNE,15,0.0,0.0,80,0.00,CLR,,0.00,WeatherDisplay:10.37,2013-06-04 08:35:00,
2013-06-04 03:40:00,52.6,47.0,30.05,NNE,15,0.0,0.0,81,0.00,CLR,,0.00,WeatherDisplay:10.37,2013-06-04 08:40:00,
2013-06-04 03:45:00,52.4,46.7,30.05,NNE,15,0.0,0.0,81,0.00,CLR,,0.00,WeatherDisplay:10.37,2013-06-04 08:45:00,
2013-06-04 03:50:00,52.2,46.9,30.05,NNE,15,0.0,2.0,82,0.00,CLR,,0.00,WeatherDisplay:10.37,2013-06-04 08:50:00,
2013-06-04 03:55:00,51.9,46.9,30.06,NNE,15,0.0,2.0,83,0.00,CLR,,0.00,WeatherDisplay:10.37,2013-06-04 08:55:00,
2013-06-04 04:00:00,51.6,46.6,30.06,NNE,15,0.0,0.0,83,0.00,CLR,,0.00,WeatherDisplay:10.37,2013-06-04 09:00:00,
2013-06-04 04:05:00,51.4,46.4,30.06,NNE,15,0.0,0.0,83,0.00,CLR,,0.00,WeatherDisplay:10.37,2013-06-04 09:05:00,
2013-06-04 04:10:00,51.1,46.4,30.06,NNE,15,0.0,0.0,84,0.00,CLR,,0.00,WeatherDisplay:10.37,2013-06-04 09:10:00,
2013-06-04 04:15:00,51.0,46.3,30.05,NNE,15,0.0,0.0,84,0.00,CLR,,0.00,WeatherDisplay:10.37,2013-06-04 09:15:00,
2013-06-04 04:20:00,50.8,46.1,30.05,NNE,15,0.0,0.0,84,0.00,CLR,,0.00,WeatherDisplay:10.37,2013-06-04 09:20:00,
2013-06-04 04:25:00,50.8,46.4,30.05,NNE,15,0.0,0.0,85,0.00,CLR,,0.00,WeatherDisplay:10.37,2013-06-04 09:25:00,
2013-06-04 04:35:00,50.5,46.2,30.05,NNE,15,0.0,0.0,85,0.00,CLR,,0.00,WeatherDisplay:10.37,2013-06-04 09:35:00,
2013-06-04 04:40:00,50.5,46.2,30.05,NNE,15,0.0,0.0,85,0.00,CLR,,0.00,WeatherDisplay:10.37,2013-06-04 09:40:00,
2013-06-04 04:45:00,50.5,46.2,30.05,NNE,15,0.0,0.0,85,0.00,CLR,,0.00,WeatherDisplay:10.37,2013-06-04 09:45:00,
2013-06-04 04:50:00,50.5,46.5,30.06,NNE,15,0.0,2.0,86,0.00,CLR,,0.00,WeatherDisplay:10.37,2013-06-04 09:50:00,
2013-06-04 04:55:00,50.5,46.5,30.07,NNE,13,1.0,2.0,86,0.00,CLR,,0.00,WeatherDisplay:10.37,2013-06-04 09:55:00,
2013-06-04 05:00:00,50.7,46.7,30.08,North,3,0.0,2.0,86,0.00,CLR,,0.00,WeatherDisplay:10.37,2013-06-04 10:00:00,
2013-06-04 05:05:00,50.5,46.5,30.08,North,355,0.0,0.0,86,0.00,CLR,,0.00,WeatherDisplay:10.37,2013-06-04 10:05:00,
2013-06-04 05:10:00,50.5,46.5,30.09,North,355,0.0,0.0,86,0.00,CLR,,0.00,WeatherDisplay:10.37,2013-06-04 10:10:00,
2013-06-04 05:15:00,50.4,46.4,30.08,North,355,0.0,0.0,86,0.00,CLR,,0.00,WeatherDisplay:10.37,2013-06-04 10:15:00,
2013-06-04 05:20:00,50.2,46.2,30.08,North,355,0.0,0.0,86,0.00,CLR,,0.00,WeatherDisplay:10.37,2013-06-04 10:20:00,
2013-06-04 05:25:00,50.1,46.1,30.08,North,355,0.0,0.0,86,0.00,CLR,,0.00,WeatherDisplay:10.37,2013-06-04 10:25:00,
2013-06-04 05:30:00,49.9,46.2,30.08,North,355,0.0,0.0,87,0.00,CLR,,0.00,WeatherDisplay:10.37,2013-06-04 10:30:00,
2013-06-04 05:35:00,49.8,46.1,30.07,North,355,0.0,0.0,87,0.00,CLR,,0.00,WeatherDisplay:10.37,2013-06-04 10:35:00,
2013-06-04 05:40:00,49.8,46.1,30.07,North,355,0.0,0.0,87,0.00,CLR,,0.00,WeatherDisplay:10.37,2013-06-04 10:40:00,
2013-06-04 05:45:00,49.6,45.9,30.07,North,355,0.0,0.0,87,0.00,CLR,,0.00,WeatherDisplay:10.37,2013-06-04 10:45:00,
2013-06-04 05:50:00,49.8,46.1,30.07,North,355,0.0,0.0,87,0.00,CLR,,0.00,WeatherDisplay:10.37,2013-06-04 10:50:00,
2013-06-04 05:55:00,49.9,46.2,30.07,North,355,0.0,0.0,87,0.00,CLR,,0.00,WeatherDisplay:10.37,2013-06-04 10:55:00,
2013-06-04 06:00:00,50.4,47.0,30.07,North,355,0.0,2.0,88,0.00,CLR,,0.00,WeatherDisplay:10.37,2013-06-04 11:00:00,
2013-06-04 06:05:00,50.9,47.5,30.07,North,355,0.0,2.0,88,0.00,CLR,,0.00,WeatherDisplay:10.37,2013-06-04 11:05:00,
2013-06-04 06:15:00,51.6,47.9,30.07,North,355,0.0,2.0,87,0.00,CLR,,0.00,WeatherDisplay:10.37,2013-06-04 11:15:00,
2013-06-04 06:20:00,51.7,48.0,30.07,North,355,0.0,0.0,87,0.00,CLR,,0.00,WeatherDisplay:10.37,2013-06-04 11:20:00,
2013-06-04 06:25:00,51.9,48.2,30.07,North,355,0.0,2.0,87,0.00,CLR,,0.00,WeatherDisplay:10.37,2013-06-04 11:25:00,
2013-06-04 06:30:00,52.0,47.9,30.07,North,355,0.0,0.0,86,0.00,CLR,,0.00,WeatherDisplay:10.37,2013-06-04 11:30:00,
2013-06-04 06:35:00,52.3,48.2,30.06,North,355,0.0,0.0,86,0.00,CLR,,0.00,WeatherDisplay:10.37,2013-06-04 11:35:00,
2013-06-04 06:40:00,52.6,48.2,30.06,North,355,0.0,0.0,85,0.00,CLR,,0.00,WeatherDisplay:10.37,2013-06-04 11:40:00,
2013-06-04 06:45:00,52.8,48.4,30.06,North,355,0.0,0.0,85,0.00,CLR,,0.00,WeatherDisplay:10.37,2013-06-04 11:45:00,
2013-06-04 06:50:00,53.1,48.4,30.06,North,355,0.0,0.0,84,0.00,CLR,,0.00,WeatherDisplay:10.37,2013-06-04 11:50:00,
2013-06-04 06:55:00,53.3,48.6,30.06,North,355,0.0,0.0,84,0.00,CLR,,0.00,WeatherDisplay:10.37,2013-06-04 11:55:00,
2013-06-04 07:00:00,53.7,48.3,30.06,North,355,0.0,0.0,82,0.00,CLR,,0.00,WeatherDisplay:10.37,2013-06-04 12:00:00,
2013-06-04 07:05:00,54.1,48.7,30.07,North,355,0.0,2.0,82,0.00,CLR,,0.00,WeatherDisplay:10.37,2013-06-04 12:05:00,
2013-06-04 07:10:00,54.5,48.8,30.07,North,355,0.0,0.0,81,0.00,CLR,,0.00,WeatherDisplay:10.37,2013-06-04 12:10:00,
2013-06-04 07:15:00,55.0,48.6,30.07,North,11,1.0,3.0,79,0.00,CLR,,0.00,WeatherDisplay:10.37,2013-06-04 12:15:00,
2013-06-04 07:20:00,55.6,48.8,30.07,NE,41,0.0,3.0,78,0.00,CLR,,0.00,WeatherDisplay:10.37,2013-06-04 12:20:00,
2013-06-04 07:25:00,56.0,48.8,30.07,NE,43,0.0,2.0,77,0.00,CLR,,0.00,WeatherDisplay:10.37,2013-06-04 12:25:00,
2013-06-04 07:30:00,56.4,48.9,30.06,NE,43,0.0,2.0,76,0.00,CLR,,0.00,WeatherDisplay:10.37,2013-06-04 12:30:00,
2013-06-04 07:35:00,56.7,48.9,30.06,NE,44,1.0,3.0,75,0.00,CLR,,0.00,WeatherDisplay:10.37,2013-06-04 12:35:00,
2013-06-04 07:45:00,57.6,48.6,30.05,SW,217,1.0,5.0,72,0.00,CLR,,0.00,WeatherDisplay:10.37,2013-06-04 12:45:00,
2013-06-04 07:50:00,58.0,48.6,30.05,SW,231,0.0,3.0,71,0.00,CLR,,0.00,WeatherDisplay:10.37,2013-06-04 12:50:00,
2013-06-04 07:55:00,58.3,48.9,30.05,SSW,213,0.0,3.0,71,0.00,CLR,,0.00,WeatherDisplay:10.37,2013-06-04 12:55:00,
2013-06-04 08:00:00,58.6,49.2,30.05,SSE,149,0.0,5.0,71,0.00,CLR,,0.00,WeatherDisplay:10.37,2013-06-04 13:00:00,
2013-06-04 08:05:00,59.0,49.2,30.06,East,86,2.0,5.0,70,0.00,CLR,,0.00,WeatherDisplay:10.37,2013-06-04 13:05:00,
2013-06-04 08:10:00,59.3,49.9,30.06,NE,51,0.0,2.0,71,0.00,CLR,,0.00,WeatherDisplay:10.37,2013-06-04 13:10:00,
2013-06-04 08:15:00,59.6,49.8,30.06,NE,40,0.0,2.0,70,0.00,CLR,,0.00,WeatherDisplay:10.37,2013-06-04 13:15:00,
2013-06-04 08:20:00,60.1,49.9,30.06,SE,139,1.0,5.0,69,0.00,CLR,,0.00,WeatherDisplay:10.37,2013-06-04 13:20:00,
2013-06-04 08:25:00,60.4,49.8,30.07,South,178,2.0,5.0,68,0.00,CLR,,0.00,WeatherDisplay:10.37,2013-06-04 13:25:00,
2013-06-04 08:30:00,60.9,50.3,30.07,South,179,1.0,6.0,68,0.00,CLR,,0.00,WeatherDisplay:10.37,2013-06-04 13:30:00,
2013-06-04 08:35:00,61.3,50.6,30.07,South,171,2.0,6.0,68,0.00,CLR,,0.00,WeatherDisplay:10.37,2013-06-04 13:35:00,
2013-06-04 08:40:00,61.8,50.7,30.07,SSE,161,1.0,5.0,67,0.00,CLR,,0.00,WeatherDisplay:10.37,2013-06-04 13:40:00,
2013-06-04 08:45:00,62.2,50.7,30.07,SE,136,0.0,8.0,66,0.00,CLR,,0.00,WeatherDisplay:10.37,2013-06-04 13:45:00,
2013-06-04 08:50:00,62.5,51.0,30.07,SE,136,0.0,3.0,66,0.00,CLR,,0.00,WeatherDisplay:10.37,2013-06-04 13:50:00,
2013-06-04 08:55:00,63.1,50.7,30.07,SSE,166,1.0,9.0,64,0.00,CLR,,0.00,WeatherDisplay:10.37,2013-06-04 13:55:00,
2013-06-04 09:00:00,63.4,50.6,30.07,SSE,158,5.0,8.0,63,0.00,CLR,,0.00,WeatherDisplay:10.37,2013-06-04 14:00:00,
2013-06-04 09:05:00,63.5,51.1,30.07,SSE,162,1.0,5.0,64,0.00,CLR,,0.00,WeatherDisplay:10.37,2013-06-04 14:05:00,
2013-06-04 09:10:00,63.9,50.2,30.07,South,170,1.0,6.0,61,0.00,CLR,,0.00,WeatherDisplay:10.37,2013-06-04 14:10:00,
2013-06-04 09:15:00,64.2,50.0,30.07,SSE,159,2.0,5.0,60,0.00,CLR,,0.00,WeatherDisplay:10.37,2013-06-04 14:15:00,
2013-06-04 09:20:00,64.7,50.5,30.06,SSE,148,2.0,6.0,60,0.00,CLR,,0.00,WeatherDisplay:10.37,2013-06-04 14:20:00,
2013-06-04 09:25:00,65.2,50.0,30.06,SSE,156,3.0,6.0,58,0.00,CLR,,0.00,WeatherDisplay:10.37,2013-06-04 14:25:00,
2013-06-04 09:30:00,65.5,49.9,30.06,ESE,119,2.0,5.0,57,0.00,CLR,,0.00,WeatherDisplay:10.37,2013-06-04 14:30:00,
2013-06-04 09:35:00,65.8,49.7,30.06,ESE,123,7.0,12.0,56,0.00,CLR,,0.00,WeatherDisplay:10.37,2013-06-04 14:35:00,
2013-06-04 09:40:00,65.8,49.2,30.06,SSE,158,8.0,9.0,55,0.00,CLR,,0.00,WeatherDisplay:10.37,2013-06-04 14:40:00,
2013-06-04 09:45:00,66.1,49.9,30.06,SSE,158,2.0,8.0,56,0.00,CLR,,0.00,WeatherDisplay:10.37,2013-06-04 14:45:00,
2013-06-04 09:50:00,66.3,49.7,30.07,SSE,148,7.0,11.0,55,0.00,CLR,,0.00,WeatherDisplay:10.37,2013-06-04 14:50:00,
2013-06-04 09:55:00,66.4,49.7,30.07,SE,139,6.0,9.0,55,0.00,CLR,,0.00,WeatherDisplay:10.37,2013-06-04 14:55:00,
2013-06-04 10:05:00,67.2,50.0,30.07,SSE,158,6.0,8.0,54,0.00,CLR,,0.00,WeatherDisplay:10.37,2013-06-04 15:05:00,
2013-06-04 10:10:00,67.3,51.1,30.07,SE,145,3.0,14.0,56,0.00,CLR,,0.00,WeatherDisplay:10.37,2013-06-04 15:10:00,
2013-06-04 10:20:00,68.1,51.3,30.07,SE,131,2.0,8.0,55,0.00,CLR,,0.00,WeatherDisplay:10.37,2013-06-04 15:20:00,
2013-06-04 10:25:00,68.6,51.3,30.07,SE,144,2.0,8.0,54,0.00,CLR,,0.00,WeatherDisplay:10.37,2013-06-04 15:25:00,
2013-06-04 10:30:00,69.0,51.7,30.06,SSE,148,6.0,9.0,54,0.00,CLR,,0.00,WeatherDisplay:10.37,2013-06-04 15:30:00,
2013-06-04 15:35:00,74.4,48.5,30.01,SE,143,1.0,5.0,40,0.00,CLR,,0.00,WeatherDisplay:10.37,2013-06-04 20:35:00,
2013-06-04 15:40:00,74.7,49.4,30.01,ESE,106,1.0,3.0,41,0.00,CLR,,0.00,WeatherDisplay:10.37,2013-06-04 20:40:00,
2013-06-04 15:45:00,74.4,48.5,30.01,SSE,159,2.0,6.0,40,0.00,CLR,,0.00,WeatherDisplay:10.37,2013-06-04 20:45:00,
2013-06-04 15:50:00,74.2,49.0,30.01,SSW,192,0.0,2.0,41,0.00,CLR,,0.00,WeatherDisplay:10.37,2013-06-04 20:50:00,
2013-06-04 16:00:00,74.6,49.3,30.00,NE,43,1.0,11.0,41,0.00,CLR,,0.00,WeatherDisplay:10.37,2013-06-04 21:00:00,
2013-06-04 16:05:00,74.5,48.6,30.00,NE,56,1.0,8.0,40,0.00,CLR,,0.00,WeatherDisplay:10.37,2013-06-04 21:05:00,
2013-06-04 16:10:00,74.2,48.3,30.00,SE,128,6.0,9.0,40,0.00,CLR,,0.00,WeatherDisplay:10.37,2013-06-04 21:10:00,
2013-06-04 16:15:00,74.0,49.4,30.00,South,172,2.0,5.0,42,0.00,CLR,,0.00,WeatherDisplay:10.37,2013-06-04 21:15:00,
2013-06-04 16:20:00,74.2,49.6,30.00,South,181,1.0,5.0,42,0.00,CLR,,0.00,WeatherDisplay:10.37,2013-06-04 21:20:00,
2013-06-04 16:25:00,74.2,48.3,30.00,SE,145,1.0,9.0,40,0.00,CLR,,0.00,WeatherDisplay:10.37,2013-06-04 21:25:00,
2013-06-04 16:30:00,74.2,49.0,30.00,SE,146,6.0,8.0,41,0.00,CLR,,0.00,WeatherDisplay:10.37,2013-06-04 21:30:00,
2013-06-04 16:35:00,74.0,49.4,30.00,SSE,150,1.0,5.0,42,0.00,CLR,,0.00,WeatherDisplay:10.37,2013-06-04 21:35:00,
2013-06-04 16:40:00,74.4,49.8,30.00,SSE,158,1.0,5.0,42,0.00,CLR,,0.00,WeatherDisplay:10.37,2013-06-04 21:40:00,
2013-06-04 16:45:00,74.5,49.9,30.00,South,189,1.0,5.0,42,0.00,CLR,,0.00,WeatherDisplay:10.37,2013-06-04 21:45:00,
2013-06-04 16:50:00,74.6,49.3,30.00,South,189,0.0,5.0,41,0.00,CLR,,0.00,WeatherDisplay:10.37,2013-06-04 21:50:00,
2013-06-04 16:55:00,74.6,50.0,30.00,ESE,111,2.0,6.0,42,0.00,CLR,,0.00,WeatherDisplay:10.37,2013-06-04 21:55:00,
2013-06-04 17:00:00,74.4,49.8,30.00,South,171,0.0,5.0,42,0.00,CLR,,0.00,WeatherDisplay:10.37,2013-06-04 22:00:00,
2013-06-04 17:05:00,74.6,50.0,30.00,SSE,161,1.0,5.0,42,0.00,CLR,,0.00,WeatherDisplay:10.37,2013-06-04 22:05:00,
2013-06-04 17:10:00,74.2,49.0,30.00,SE,143,2.0,6.0,41,0.00,CLR,,0.00,WeatherDisplay:10.37,2013-06-04 22:10:00,
2013-06-04 17:15:00,74.0,50.1,30.00,SSE,159,2.0,9.0,43,0.00,CLR,,0.00,WeatherDisplay:10.37,2013-06-04 22:15:00,
2013-06-04 17:20:00,74.2,49.6,30.00,SSE,163,2.0,5.0,42,0.00,CLR,,0.00,WeatherDisplay:10.37,2013-06-04 22:20:00,
2013-06-04 17:25:00,73.9,48.7,30.00,SSE,162,5.0,6.0,41,0.00,CLR,,0.00,WeatherDisplay:10.37,2013-06-04 22:25:00,
2013-06-04 17:30:00,73.7,49.2,30.00,SSE,152,2.0,6.0,42,0.00,CLR,,0.00,WeatherDisplay:10.37,2013-06-04 22:30:00,
2013-06-04 17:35:00,73.9,48.7,30.00,SE,144,1.0,5.0,41,0.00,CLR,,0.00,WeatherDisplay:10.37,2013-06-04 22:35:00,
2013-06-04 17:40:00,73.7,48.5,30.00,SSE,147,1.0,5.0,41,0.00,CLR,,0.00,WeatherDisplay:10.37,2013-06-04 22:40:00,
2013-06-04 17:45:00,73.8,49.3,30.00,SE,146,0.0,3.0,42,0.00,CLR,,0.00,WeatherDisplay:10.37,2013-06-04 22:45:00,
2013-06-04 17:50:00,73.9,49.3,30.00,SSE,160,1.0,9.0,42,0.00,CLR,,0.00,WeatherDisplay:10.37,2013-06-04 22:50:00,
2013-06-04 17:55:00,73.9,49.4,30.00,SSE,164,1.0,6.0,42,0.00,CLR,,0.00,WeatherDisplay:10.37,2013-06-04 22:55:00,
2013-06-04 18:00:00,73.9,48.7,30.00,SSE,147,1.0,6.0,41,0.00,CLR,,0.00,WeatherDisplay:10.37,2013-06-04 23:00:00,
2013-06-04 18:05:00,73.8,47.9,29.99,SE,140,3.0,5.0,40,0.00,CLR,,0.00,WeatherDisplay:10.37,2013-06-04 23:05:00,
2013-06-04 18:10:00,73.3,47.5,29.99,SE,131,0.0,6.0,40,0.00,CLR,,0.00,WeatherDisplay:10.37,2013-06-04 23:10:00,
2013-06-04 18:15:00,73.2,48.1,29.99,SE,135,1.0,6.0,41,0.00,CLR,,0.00,WeatherDisplay:10.37,2013-06-04 23:15:00,
2013-06-04 18:20:00,73.2,48.7,29.99,SSE,159,0.0,2.0,42,0.00,CLR,,0.00,WeatherDisplay:10.37,2013-06-04 23:20:00,
2013-06-04 18:25:00,73.0,47.9,29.99,SSE,155,0.0,6.0,41,0.00,CLR,,0.00,WeatherDisplay:10.37,2013-06-04 23:25:00,
2013-06-04 18:30:00,72.8,48.4,29.99,SSE,159,0.0,3.0,42,0.00,CLR,,0.00,WeatherDisplay:10.37,2013-06-04 23:30:00,
2013-06-04 18:35:00,72.8,49.0,29.99,South,176,0.0,2.0,43,0.00,CLR,,0.00,WeatherDisplay:10.37,2013-06-04 23:35:00,
2013-06-04 18:40:00,72.7,48.9,29.99,SSE,148,0.0,6.0,43,0.00,CLR,,0.00,WeatherDisplay:10.37,2013-06-04 23:40:00,
2013-06-04 18:45:00,72.7,49.5,29.99,SE,139,0.0,2.0,44,0.00,CLR,,0.00,WeatherDisplay:10.37,2013-06-04 23:45:00,
2013-06-04 18:50:00,72.7,48.9,29.99,SE,139,0.0,2.0,43,0.00,CLR,,0.00,WeatherDisplay:10.37,2013-06-04 23:50:00,
2013-06-04 18:55:00,72.5,49.3,29.99,SE,138,0.0,2.0,44,0.00,CLR,,0.00,WeatherDisplay:10.37,2013-06-04 23:55:00,
2013-06-04 19:00:00,72.3,49.2,29.99,SE,138,0.0,0.0,44,0.00,CLR,,0.00,WeatherDisplay:10.37,2013-06-05 00:00:00,
2013-06-04 19:05:00,72.3,49.2,29.98,SE,138,0.0,0.0,44,0.00,CLR,,0.00,WeatherDisplay:10.37,2013-06-05 00:05:00,
2013-06-04 19:10:00,72.1,49.6,29.98,SE,138,0.0,0.0,45,0.00,CLR,,0.00,WeatherDisplay:10.37,2013-06-05 00:10:00,
2013-06-04 19:15:00,72.0,49.5,29.98,SE,138,0.0,2.0,45,0.00,CLR,,0.00,WeatherDisplay:10.37,2013-06-05 00:15:00,
2013-06-04 19:20:00,71.8,49.3,29.98,SE,138,0.0,2.0,45,0.00,CLR,,0.00,WeatherDisplay:10.37,2013-06-05 00:20:00,
2013-06-04 19:25:00,71.6,49.1,29.98,ESE,116,2.0,5.0,45,0.00,CLR,,0.00,WeatherDisplay:10.37,2013-06-05 00:25:00,
2013-06-04 19:30:00,71.4,49.5,29.98,NE,47,0.0,0.0,46,0.00,CLR,,0.00,WeatherDisplay:10.37,2013-06-05 00:30:00,
2013-06-04 19:35:00,71.3,50.0,29.98,NNE,28,0.0,0.0,47,0.00,CLR,,0.00,WeatherDisplay:10.37,2013-06-05 00:35:00,
2013-06-04 19:40:00,71.1,49.8,29.98,NNE,28,0.0,0.0,47,0.00,CLR,,0.00,WeatherDisplay:10.37,2013-06-05 00:40:00,
2013-06-04 19:45:00,70.9,50.2,29.98,NNE,28,0.0,0.0,48,0.00,CLR,,0.00,WeatherDisplay:10.37,2013-06-05 00:45:00,
2013-06-04 19:50:00,70.8,50.7,29.98,NNE,28,0.0,2.0,49,0.00,CLR,,0.00,WeatherDisplay:10.37,2013-06-05 00:50:00,
2013-06-04 19:55:00,70.6,51.1,29.98,NNE,28,0.0,0.0,50,0.00,CLR,,0.00,WeatherDisplay:10.37,2013-06-05 00:55:00,
2013-06-04 20:00:00,70.4,50.9,29.99,NNE,28,0.0,0.0,50,0.00,CLR,,0.00,WeatherDisplay:10.37,2013-06-05 01:00:00,
2013-06-04 20:05:00,70.1,51.2,29.99,NNE,28,0.0,0.0,51,0.00,CLR,,0.00,WeatherDisplay:10.37,2013-06-05 01:05:00,
2013-06-04 20:10:00,69.9,51.5,29.99,NNE,28,0.0,0.0,52,0.00,CLR,,0.00,WeatherDisplay:10.37,2013-06-05 01:10:00,
2013-06-04 20:15:00,69.5,52.6,29.99,NNE,28,0.0,0.0,55,0.00,CLR,,0.00,WeatherDisplay:10.37,2013-06-05 01:15:00,
2013-06-04 20:20:00,69.0,52.6,29.99,NNE,28,0.0,0.0,56,0.00,CLR,,0.00,WeatherDisplay:10.37,2013-06-05 01:20:00,
2013-06-04 20:25:00,68.4,52.1,29.99,NNE,28,0.0,0.0,56,0.00,CLR,,0.00,WeatherDisplay:10.37,2013-06-05 01:25:00,
2013-06-04 20:30:00,67.8,52.0,29.99,NNE,28,0.0,0.0,57,0.00,CLR,,0.00,WeatherDisplay:10.37,2013-06-05 01:30:00,
2013-06-04 20:35:00,67.2,51.9,29.99,NNE,28,0.0,0.0,58,0.00,CLR,,0.00,WeatherDisplay:10.37,2013-06-05 01:35:00,
2013-06-04 20:40:00,66.6,52.2,29.99,NNE,28,0.0,0.0,60,0.00,CLR,,0.00,WeatherDisplay:10.37,2013-06-05 01:40:00,
2013-06-04 20:45:00,66.0,51.8,29.99,NNE,28,0.0,0.0,60,0.00,CLR,,0.00,WeatherDisplay:10.37,2013-06-05 01:45:00,
2013-06-04 20:50:00,65.6,52.2,29.99,NNE,28,0.0,2.0,62,0.00,CLR,,0.00,WeatherDisplay:10.37,2013-06-05 01:50:00,
2013-06-04 20:55:00,65.3,52.4,29.99,NNE,28,0.0,0.0,63,0.00,CLR,,0.00,WeatherDisplay:10.37,2013-06-05 01:55:00,
2013-06-04 21:00:00,65.0,52.1,29.99,NNE,28,0.0,0.0,63,0.00,CLR,,0.00,WeatherDisplay:10.37,2013-06-05 02:00:00,
2013-06-04 21:05:00,64.7,51.8,29.99,NNE,28,0.0,0.0,63,0.00,CLR,,0.00,WeatherDisplay:10.37,2013-06-05 02:05:00,
2013-06-04 21:10:00,64.5,52.0,29.99,NNE,28,0.0,0.0,64,0.00,CLR,,0.00,WeatherDisplay:10.37,2013-06-05 02:10:00,
2013-06-04 21:15:00,64.3,51.9,29.99,NNE,28,0.0,0.0,64,0.00,CLR,,0.00,WeatherDisplay:10.37,2013-06-05 02:15:00,
2013-06-04 21:20:00,64.2,51.8,29.99,NNE,28,0.0,2.0,64,0.00,CLR,,0.00,WeatherDisplay:10.37,2013-06-05 02:20:00,
2013-06-04 21:25:00,64.0,51.5,29.99,NNE,28,0.0,0.0,64,0.00,CLR,,0.00,WeatherDisplay:10.37,2013-06-05 02:25:00,
2013-06-04 21:30:00,63.9,52.3,30.00,NNE,28,0.0,0.0,66,0.00,CLR,,0.00,WeatherDisplay:10.37,2013-06-05 02:30:00,
2013-06-04 21:35:00,63.9,52.3,30.00,NNE,28,0.0,0.0,66,0.00,CLR,,0.00,WeatherDisplay:10.37,2013-06-05 02:35:00,
2013-06-04 21:40:00,63.9,52.3,30.00,NNE,28,0.0,0.0,66,0.00,CLR,,0.00,WeatherDisplay:10.37,2013-06-05 02:40:00,
2013-06-04 21:45:00,63.9,52.7,30.00,NNE,28,0.0,0.0,67,0.00,CLR,,0.00,WeatherDisplay:10.37,2013-06-05 02:45:00,
2013-06-04 21:50:00,63.7,52.9,30.00,NNE,28,0.0,0.0,68,0.00,CLR,,0.00,WeatherDisplay:10.37,2013-06-05 02:50:00,
2013-06-04 21:55:00,63.5,52.7,30.00,NNE,28,0.0,0.0,68,0.00,CLR,,0.00,WeatherDisplay:10.37,2013-06-05 02:55:00,
2013-06-04 22:00:00,63.4,52.6,30.00,NNE,28,0.0,0.0,68,0.00,CLR,,0.00,WeatherDisplay:10.37,2013-06-05 03:00:00,
2013-06-04 22:05:00,63.1,52.8,30.00,NNE,28,0.0,0.0,69,0.00,CLR,,0.00,WeatherDisplay:10.37,2013-06-05 03:05:00,
2013-06-04 22:10:00,62.9,52.6,30.00,NNE,28,0.0,2.0,69,0.00,CLR,,0.00,WeatherDisplay:10.37,2013-06-05 03:10:00,
2013-06-04 22:15:00,62.7,52.4,30.00,NNE,28,0.0,0.0,69,0.00,CLR,,0.00,WeatherDisplay:10.37,2013-06-05 03:15:00,
2013-06-04 22:20:00,62.6,52.3,30.00,NNE,28,0.0,0.0,69,0.00,CLR,,0.00,WeatherDisplay:10.37,2013-06-05 03:20:00,
2013-06-04 22:25:00,62.4,52.1,30.00,NNE,28,0.0,2.0,69,0.00,CLR,,0.00,WeatherDisplay:10.37,2013-06-05 03:25:00,
2013-06-04 22:30:00,62.4,52.1,30.00,NNE,28,0.0,0.0,69,0.00,CLR,,0.00,WeatherDisplay:10.37,2013-06-05 03:30:00,
2013-06-04 22:35:00,62.4,52.1,30.00,NNE,28,0.0,2.0,69,0.00,CLR,,0.00,WeatherDisplay:10.37,2013-06-05 03:35:00,
2013-06-04 22:40:00,62.4,51.7,30.00,NNE,28,0.0,2.0,68,0.00,CLR,,0.00,WeatherDisplay:10.37,2013-06-05 03:40:00,
2013-06-04 22:45:00,62.6,51.5,30.00,NNE,28,0.0,2.0,67,0.00,CLR,,0.00,WeatherDisplay:10.37,2013-06-05 03:45:00,
2013-06-04 22:50:00,62.7,51.2,30.00,NNE,28,0.0,0.0,66,0.00,CLR,,0.00,WeatherDisplay:10.37,2013-06-05 03:50:00,
2013-06-04 22:55:00,62.9,51.4,30.00,NNE,28,0.0,0.0,66,0.00,CLR,,0.00,WeatherDisplay:10.37,2013-06-05 03:55:00,
2013-06-04 23:00:00,62.9,51.4,30.00,NNE,28,0.0,2.0,66,0.00,CLR,,0.00,WeatherDisplay:10.37,2013-06-05 04:00:00,
2013-06-04 23:05:00,63.1,51.6,30.00,NNE,28,0.0,2.0,66,0.00,CLR,,0.00,WeatherDisplay:10.37,2013-06-05 04:05:00,
2013-06-04 23:10:00,63.1,51.6,30.00,NNE,28,0.0,0.0,66,0.00,CLR,,0.00,WeatherDisplay:10.37,2013-06-05 04:10:00,
2013-06-04 23:15:00,62.9,51.8,29.99,NNE,28,0.0,0.0,67,0.00,CLR,,0.00,WeatherDisplay:10.37,2013-06-05 04:15:00,
2013-06-04 23:20:00,62.7,52.0,29.99,NNE,28,0.0,0.0,68,0.00,CLR,,0.00,WeatherDisplay:10.37,2013-06-05 04:20:00,
2013-06-04 23:25:00,62.4,51.7,29.99,NNE,28,0.0,2.0,68,0.00,CLR,,0.00,WeatherDisplay:10.37,2013-06-05 04:25:00,
2013-06-04 23:30:00,62.3,52.0,29.99,NNE,28,0.0,2.0,69,0.00,CLR,,0.00,WeatherDisplay:10.37,2013-06-05 04:30:00,
2013-06-04 23:35:00,62.0,51.7,29.99,NNE,28,0.0,0.0,69,0.00,CLR,,0.00,WeatherDisplay:10.37,2013-06-05 04:35:00,
2013-06-04 23:40:00,61.6,51.7,29.99,NNE,28,0.0,0.0,70,0.00,CLR,,0.00,WeatherDisplay:10.37,2013-06-05 04:40:00,
2013-06-04 23:45:00,61.5,52.0,29.99,NNE,28,0.0,2.0,71,0.00,CLR,,0.00,WeatherDisplay:10.37,2013-06-05 04:45:00,
2013-06-04 23:50:00,61.2,52.1,29.99,NNE,28,0.0,2.0,72,0.00,CLR,,0.00,WeatherDisplay:10.37,2013-06-05 04:50:00,
2013-06-04 23:55:00,61.0,51.5,29.99,NNE,28,0.0,0.0,71,0.00,CLR,,0.00,WeatherDisplay:10.37,2013-06-05 04:55:00,